Year,Month,Day,Hour,Minute,Value (Times are PST for insolation in W/m^2)
2020,01,25,00,00,0.00
2020,01,25,00,01,0.00
2020,01,25,00,02,0.00
2020,01,25,00,03,0.00
2020,01,25,00,04,0.00
2020,01,25,00,05,0.00
2020,01,25,00,06,0.00
2020,01,25,00,07,0.00
2020,01,25,00,08,0.00
2020,01,25,00,09,0.00
2020,01,25,00,10,0.00
2020,01,25,00,11,0.00
2020,01,25,00,12,0.00
2020,01,25,00,13,0.00
2020,01,25,00,14,0.00
2020,01,25,00,15,0.00
2020,01,25,00,16,0.00
2020,01,25,00,17,0.00
2020,01,25,00,18,0.00
2020,01,25,00,19,0.00
2020,01,25,00,20,0.00
2020,01,25,00,21,0.00
2020,01,25,00,22,0.00
2020,01,25,00,23,0.00
2020,01,25,00,24,0.00
2020,01,25,00,25,0.00
2020,01,25,00,26,0.00
2020,01,25,00,27,0.00
2020,01,25,00,28,0.00
2020,01,25,00,29,0.00
2020,01,25,00,30,0.00
2020,01,25,00,31,0.00
2020,01,25,00,32,0.00
2020,01,25,00,33,0.00
2020,01,25,00,34,0.00
2020,01,25,00,35,0.00
2020,01,25,00,36,0.00
2020,01,25,00,37,0.00
2020,01,25,00,38,0.00
2020,01,25,00,39,0.00
2020,01,25,00,40,0.00
2020,01,25,00,41,0.00
2020,01,25,00,42,0.00
2020,01,25,00,43,0.00
2020,01,25,00,44,0.00
2020,01,25,00,45,0.00
2020,01,25,00,46,0.00
2020,01,25,00,47,0.00
2020,01,25,00,48,0.00
2020,01,25,00,49,0.00
2020,01,25,00,50,0.00
2020,01,25,00,51,0.00
2020,01,25,00,52,0.00
2020,01,25,00,53,0.00
2020,01,25,00,54,0.00
2020,01,25,00,55,0.00
2020,01,25,00,56,0.00
2020,01,25,00,57,0.00
2020,01,25,00,58,0.00
2020,01,25,00,59,0.00
2020,01,25,01,00,0.00
2020,01,25,01,01,0.00
2020,01,25,01,02,0.00
2020,01,25,01,03,0.00
2020,01,25,01,04,0.00
2020,01,25,01,05,0.00
2020,01,25,01,06,0.00
2020,01,25,01,07,0.00
2020,01,25,01,08,0.00
2020,01,25,01,09,0.00
2020,01,25,01,10,0.00
2020,01,25,01,11,0.00
2020,01,25,01,12,0.00
2020,01,25,01,13,0.00
2020,01,25,01,14,0.00
2020,01,25,01,15,0.00
2020,01,25,01,16,0.00
2020,01,25,01,17,0.00
2020,01,25,01,18,0.00
2020,01,25,01,19,0.00
2020,01,25,01,20,0.00
2020,01,25,01,21,0.00
2020,01,25,01,22,0.00
2020,01,25,01,23,0.00
2020,01,25,01,24,0.00
2020,01,25,01,25,0.00
2020,01,25,01,26,0.00
2020,01,25,01,27,0.00
2020,01,25,01,28,0.00
2020,01,25,01,29,0.00
2020,01,25,01,30,0.00
2020,01,25,01,31,0.00
2020,01,25,01,32,0.00
2020,01,25,01,33,0.00
2020,01,25,01,34,0.00
2020,01,25,01,35,0.00
2020,01,25,01,36,0.00
2020,01,25,01,37,0.00
2020,01,25,01,38,0.00
2020,01,25,01,39,0.00
2020,01,25,01,40,0.00
2020,01,25,01,41,0.00
2020,01,25,01,42,0.00
2020,01,25,01,43,0.00
2020,01,25,01,44,0.00
2020,01,25,01,45,0.00
2020,01,25,01,46,0.00
2020,01,25,01,47,0.00
2020,01,25,01,48,0.00
2020,01,25,01,49,0.00
2020,01,25,01,50,0.00
2020,01,25,01,51,0.00
2020,01,25,01,52,0.00
2020,01,25,01,53,0.00
2020,01,25,01,54,0.00
2020,01,25,01,55,0.00
2020,01,25,01,56,0.00
2020,01,25,01,57,0.00
2020,01,25,01,58,0.00
2020,01,25,01,59,0.00
2020,01,25,02,00,0.00
2020,01,25,02,01,0.00
2020,01,25,02,02,0.00
2020,01,25,02,03,0.00
2020,01,25,02,04,0.00
2020,01,25,02,05,0.00
2020,01,25,02,06,0.00
2020,01,25,02,07,0.00
2020,01,25,02,08,0.00
2020,01,25,02,09,0.00
2020,01,25,02,10,0.00
2020,01,25,02,11,0.00
2020,01,25,02,12,0.00
2020,01,25,02,13,0.00
2020,01,25,02,14,0.00
2020,01,25,02,15,0.00
2020,01,25,02,16,0.00
2020,01,25,02,17,0.00
2020,01,25,02,18,0.00
2020,01,25,02,19,0.00
2020,01,25,02,20,0.00
2020,01,25,02,21,0.00
2020,01,25,02,22,0.00
2020,01,25,02,23,0.00
2020,01,25,02,24,0.00
2020,01,25,02,25,0.00
2020,01,25,02,26,0.00
2020,01,25,02,27,0.00
2020,01,25,02,28,0.00
2020,01,25,02,29,0.00
2020,01,25,02,30,0.00
2020,01,25,02,31,0.00
2020,01,25,02,32,0.00
2020,01,25,02,33,0.00
2020,01,25,02,34,0.00
2020,01,25,02,35,0.00
2020,01,25,02,36,0.00
2020,01,25,02,37,0.00
2020,01,25,02,38,0.00
2020,01,25,02,39,0.00
2020,01,25,02,40,0.00
2020,01,25,02,41,0.00
2020,01,25,02,42,0.00
2020,01,25,02,43,0.00
2020,01,25,02,44,0.00
2020,01,25,02,45,0.00
2020,01,25,02,46,0.00
2020,01,25,02,47,0.00
2020,01,25,02,48,0.00
2020,01,25,02,49,0.00
2020,01,25,02,50,0.00
2020,01,25,02,51,0.00
2020,01,25,02,52,0.00
2020,01,25,02,53,0.00
2020,01,25,02,54,0.00
2020,01,25,02,55,0.00
2020,01,25,02,56,0.00
2020,01,25,02,57,0.00
2020,01,25,02,58,0.00
2020,01,25,02,59,0.00
2020,01,25,03,00,0.00
2020,01,25,03,01,0.00
2020,01,25,03,02,0.00
2020,01,25,03,03,0.00
2020,01,25,03,04,0.00
2020,01,25,03,05,0.00
2020,01,25,03,06,0.00
2020,01,25,03,07,0.00
2020,01,25,03,08,0.00
2020,01,25,03,09,0.00
2020,01,25,03,10,0.00
2020,01,25,03,11,0.00
2020,01,25,03,12,0.00
2020,01,25,03,13,0.00
2020,01,25,03,14,0.00
2020,01,25,03,15,0.00
2020,01,25,03,16,0.00
2020,01,25,03,17,0.00
2020,01,25,03,18,0.00
2020,01,25,03,19,0.00
2020,01,25,03,20,0.00
2020,01,25,03,21,0.00
2020,01,25,03,22,0.00
2020,01,25,03,23,0.00
2020,01,25,03,24,0.00
2020,01,25,03,25,0.00
2020,01,25,03,26,0.00
2020,01,25,03,27,0.00
2020,01,25,03,28,0.00
2020,01,25,03,29,0.00
2020,01,25,03,30,0.00
2020,01,25,03,31,0.00
2020,01,25,03,32,0.00
2020,01,25,03,33,0.00
2020,01,25,03,34,0.00
2020,01,25,03,35,0.00
2020,01,25,03,36,0.00
2020,01,25,03,37,0.00
2020,01,25,03,38,0.00
2020,01,25,03,39,0.00
2020,01,25,03,40,0.00
2020,01,25,03,41,0.00
2020,01,25,03,42,0.00
2020,01,25,03,43,0.00
2020,01,25,03,44,0.00
2020,01,25,03,45,0.00
2020,01,25,03,46,0.00
2020,01,25,03,47,0.00
2020,01,25,03,48,0.00
2020,01,25,03,49,0.00
2020,01,25,03,50,0.00
2020,01,25,03,51,0.00
2020,01,25,03,52,0.00
2020,01,25,03,53,0.00
2020,01,25,03,54,0.00
2020,01,25,03,55,0.00
2020,01,25,03,56,0.00
2020,01,25,03,57,0.00
2020,01,25,03,58,0.00
2020,01,25,03,59,0.00
2020,01,25,04,00,0.00
2020,01,25,04,01,0.00
2020,01,25,04,02,0.00
2020,01,25,04,03,0.00
2020,01,25,04,04,0.00
2020,01,25,04,05,0.00
2020,01,25,04,06,0.00
2020,01,25,04,07,0.00
2020,01,25,04,08,0.00
2020,01,25,04,09,0.00
2020,01,25,04,10,0.00
2020,01,25,04,11,0.00
2020,01,25,04,12,0.00
2020,01,25,04,13,0.00
2020,01,25,04,14,0.00
2020,01,25,04,15,0.00
2020,01,25,04,16,0.00
2020,01,25,04,17,0.00
2020,01,25,04,18,0.00
2020,01,25,04,19,0.00
2020,01,25,04,20,0.00
2020,01,25,04,21,0.00
2020,01,25,04,22,0.00
2020,01,25,04,23,0.00
2020,01,25,04,24,0.00
2020,01,25,04,25,0.00
2020,01,25,04,26,0.00
2020,01,25,04,27,0.00
2020,01,25,04,28,0.00
2020,01,25,04,29,0.00
2020,01,25,04,30,0.00
2020,01,25,04,31,0.00
2020,01,25,04,32,0.00
2020,01,25,04,33,0.00
2020,01,25,04,34,0.00
2020,01,25,04,35,0.00
2020,01,25,04,36,0.00
2020,01,25,04,37,0.00
2020,01,25,04,38,0.00
2020,01,25,04,39,0.00
2020,01,25,04,40,0.00
2020,01,25,04,41,0.00
2020,01,25,04,42,0.00
2020,01,25,04,43,0.00
2020,01,25,04,44,0.00
2020,01,25,04,45,0.00
2020,01,25,04,46,0.00
2020,01,25,04,47,0.00
2020,01,25,04,48,0.00
2020,01,25,04,49,0.00
2020,01,25,04,50,0.00
2020,01,25,04,51,0.00
2020,01,25,04,52,0.00
2020,01,25,04,53,0.00
2020,01,25,04,54,0.00
2020,01,25,04,55,0.00
2020,01,25,04,56,0.00
2020,01,25,04,57,0.00
2020,01,25,04,58,0.00
2020,01,25,04,59,0.00
2020,01,25,05,00,0.00
2020,01,25,05,01,0.00
2020,01,25,05,02,0.00
2020,01,25,05,03,0.00
2020,01,25,05,04,0.00
2020,01,25,05,05,0.00
2020,01,25,05,06,0.00
2020,01,25,05,07,0.00
2020,01,25,05,08,0.00
2020,01,25,05,09,0.00
2020,01,25,05,10,0.00
2020,01,25,05,11,0.00
2020,01,25,05,12,0.00
2020,01,25,05,13,0.00
2020,01,25,05,14,0.00
2020,01,25,05,15,0.00
2020,01,25,05,16,0.00
2020,01,25,05,17,0.00
2020,01,25,05,18,0.00
2020,01,25,05,19,0.00
2020,01,25,05,20,0.00
2020,01,25,05,21,0.00
2020,01,25,05,22,0.00
2020,01,25,05,23,0.00
2020,01,25,05,24,0.00
2020,01,25,05,25,0.00
2020,01,25,05,26,0.00
2020,01,25,05,27,0.00
2020,01,25,05,28,0.00
2020,01,25,05,29,0.00
2020,01,25,05,30,0.00
2020,01,25,05,31,0.00
2020,01,25,05,32,0.00
2020,01,25,05,33,0.00
2020,01,25,05,34,0.00
2020,01,25,05,35,0.00
2020,01,25,05,36,0.00
2020,01,25,05,37,0.00
2020,01,25,05,38,0.00
2020,01,25,05,39,0.00
2020,01,25,05,40,0.00
2020,01,25,05,41,0.00
2020,01,25,05,42,0.00
2020,01,25,05,43,0.00
2020,01,25,05,44,0.00
2020,01,25,05,45,0.00
2020,01,25,05,46,0.00
2020,01,25,05,47,0.00
2020,01,25,05,48,0.00
2020,01,25,05,49,0.00
2020,01,25,05,50,0.00
2020,01,25,05,51,0.00
2020,01,25,05,52,0.00
2020,01,25,05,53,0.00
2020,01,25,05,54,0.00
2020,01,25,05,55,0.00
2020,01,25,05,56,0.00
2020,01,25,05,57,0.00
2020,01,25,05,58,0.00
2020,01,25,05,59,0.00
2020,01,25,06,00,0.00
2020,01,25,06,01,0.00
2020,01,25,06,02,0.00
2020,01,25,06,03,0.00
2020,01,25,06,04,0.00
2020,01,25,06,05,0.00
2020,01,25,06,06,0.00
2020,01,25,06,07,0.00
2020,01,25,06,08,0.00
2020,01,25,06,09,0.00
2020,01,25,06,10,0.00
2020,01,25,06,11,0.00
2020,01,25,06,12,0.00
2020,01,25,06,13,0.00
2020,01,25,06,14,0.00
2020,01,25,06,15,0.00
2020,01,25,06,16,0.00
2020,01,25,06,17,0.00
2020,01,25,06,18,0.00
2020,01,25,06,19,0.00
2020,01,25,06,20,0.00
2020,01,25,06,21,0.00
2020,01,25,06,22,0.00
2020,01,25,06,23,0.00
2020,01,25,06,24,0.00
2020,01,25,06,25,0.00
2020,01,25,06,26,0.00
2020,01,25,06,27,0.00
2020,01,25,06,28,0.00
2020,01,25,09,35,60.00
2020,01,25,09,36,60.00
2020,01,25,09,37,58.30
2020,01,25,09,38,55.70
2020,01,25,09,39,54.00
2020,01,25,09,40,54.00
2020,01,25,09,41,53.50
2020,01,25,09,42,51.60
2020,01,25,09,43,49.30
2020,01,25,09,44,46.00
2020,01,25,09,45,46.00
2020,01,25,09,46,46.40
2020,01,25,09,47,47.00
2020,01,25,09,48,48.40
2020,01,25,09,49,50.80
2020,01,25,09,50,54.60
2020,01,25,09,51,58.60
2020,01,25,09,52,60.80
2020,01,25,09,53,63.80
2020,01,25,09,54,66.50
2020,01,25,09,55,71.50
2020,01,25,09,56,78.20
2020,01,25,09,57,85.50
2020,01,25,09,58,94.20
2020,01,25,09,59,104.40
2020,01,25,10,00,117.20
2020,01,25,10,01,130.40
2020,01,25,10,02,140.10
2020,01,25,10,03,143.30
2020,01,25,10,04,139.40
2020,01,25,10,05,133.80
2020,01,25,10,06,126.40
2020,01,25,10,07,115.70
2020,01,25,10,08,99.10
2020,01,25,10,09,84.80
2020,01,25,10,10,69.20
2020,01,25,10,11,55.20
2020,01,25,10,12,47.10
2020,01,25,10,13,49.20
2020,01,25,10,14,56.00
2020,01,25,10,15,63.20
2020,01,25,10,16,67.20
2020,01,25,10,17,71.10
2020,01,25,10,18,72.00
2020,01,25,10,19,70.30
2020,01,25,10,20,73.10
2020,01,25,10,21,76.00
2020,01,25,10,22,76.00
2020,01,25,10,23,76.00
2020,01,25,10,24,72.60
2020,01,25,10,25,69.00
2020,01,25,10,26,69.00
2020,01,25,10,27,70.30
2020,01,25,10,28,73.10
2020,01,25,10,29,75.40
2020,01,25,10,30,83.30
2020,01,25,10,31,94.70
2020,01,25,10,32,91.40
2020,01,25,10,33,88.00
2020,01,25,10,34,85.10
2020,01,25,10,35,85.20
2020,01,25,10,36,87.70
2020,01,25,10,37,87.00
2020,01,25,10,38,79.70
2020,01,25,10,39,72.10
2020,01,25,10,40,68.10
2020,01,25,10,41,63.80
2020,01,25,10,42,60.20
2020,01,25,10,43,58.00
2020,01,25,10,44,58.80
2020,01,25,10,45,60.00
2020,01,25,10,46,58.60
2020,01,25,10,47,58.00
2020,01,25,10,48,58.00
2020,01,25,10,49,57.50
2020,01,25,10,50,55.30
2020,01,25,10,51,54.00
2020,01,25,10,52,55.40
2020,01,25,10,53,57.70
2020,01,25,10,54,60.10
2020,01,25,10,55,63.50
2020,01,25,10,56,71.00
2020,01,25,10,57,72.90
2020,01,25,10,58,70.10
2020,01,25,10,59,71.50
2020,01,25,11,00,79.80
2020,01,25,11,01,92.10
2020,01,25,11,02,100.80
2020,01,25,11,03,109.60
2020,01,25,11,04,117.80
2020,01,25,11,05,125.70
2020,01,25,11,06,131.70
2020,01,25,11,07,138.30
2020,01,25,11,08,136.10
2020,01,25,11,09,149.70
2020,01,25,11,10,156.00
2020,01,25,11,11,173.00
2020,01,25,11,12,173.80
2020,01,25,11,13,157.70
2020,01,25,11,14,150.90
2020,01,25,11,15,141.60
2020,01,25,11,16,124.20
2020,01,25,11,17,126.30
2020,01,25,11,18,127.40
2020,01,25,11,19,139.80
2020,01,25,11,20,135.60
2020,01,25,11,21,112.90
2020,01,25,11,22,104.80
2020,01,25,11,23,98.90
2020,01,25,11,24,109.20
2020,01,25,11,25,122.70
2020,01,25,11,26,114.70
2020,01,25,11,27,105.20
2020,01,25,11,28,102.00
2020,01,25,11,29,101.00
2020,01,25,11,30,110.90
2020,01,25,11,31,116.50
2020,01,25,11,32,99.30
2020,01,25,11,33,79.50
2020,01,25,11,34,74.30
2020,01,25,11,35,78.10
2020,01,25,11,36,69.50
2020,01,25,11,37,59.60
2020,01,25,11,38,57.10
2020,01,25,11,39,62.90
2020,01,25,11,40,63.30
2020,01,25,11,41,64.90
2020,01,25,11,42,62.80
2020,01,25,11,43,55.20
2020,01,25,11,44,52.20
2020,01,25,11,45,49.50
2020,01,25,11,46,43.10
2020,01,25,11,47,44.30
2020,01,25,11,48,46.00
2020,01,25,11,49,45.10
2020,01,25,11,50,42.80
2020,01,25,11,51,42.00
2020,01,25,11,52,45.60
2020,01,25,11,53,38.70
2020,01,25,11,54,37.90
2020,01,25,11,55,42.50
2020,01,25,11,56,43.60
2020,01,25,11,57,48.60
2020,01,25,11,58,61.70
2020,01,25,11,59,63.40
2020,01,25,12,00,65.00
2020,01,25,12,01,76.70
2020,01,25,12,02,92.20
2020,01,25,12,03,104.20
2020,01,25,12,04,110.00
2020,01,25,12,05,118.70
2020,01,25,12,06,114.00
2020,01,25,12,07,103.10
2020,01,25,12,08,98.20
2020,01,25,12,09,103.60
2020,01,25,12,10,102.80
2020,01,25,12,11,109.00
2020,01,25,12,12,110.50
2020,01,25,12,13,115.60
2020,01,25,12,14,123.80
2020,01,25,12,15,123.60
2020,01,25,12,16,106.40
2020,01,25,12,17,91.50
2020,01,25,12,18,86.00
2020,01,25,12,19,87.10
2020,01,25,12,20,90.20
2020,01,25,12,21,94.40
2020,01,25,12,22,92.80
2020,01,25,12,23,91.00
2020,01,25,12,24,92.80
2020,01,25,12,25,96.20
2020,01,25,12,26,99.10
2020,01,25,12,27,98.30
2020,01,25,12,28,105.90
2020,01,25,12,29,120.00
2020,01,25,12,30,139.20
2020,01,25,12,31,159.00
2020,01,25,12,32,178.20
2020,01,25,12,33,194.90
2020,01,25,12,34,206.00
2020,01,25,12,35,205.40
2020,01,25,12,36,218.40
2020,01,25,12,37,231.60
2020,01,25,12,38,243.70
2020,01,25,12,39,259.40
2020,01,25,12,40,275.20
2020,01,25,12,41,260.70
2020,01,25,12,42,235.80
2020,01,25,12,43,199.60
2020,01,25,12,44,162.00
2020,01,25,12,45,134.40
2020,01,25,12,46,117.80
2020,01,25,12,47,107.20
2020,01,25,12,48,100.50
2020,01,25,12,49,95.70
2020,01,25,12,50,96.60
2020,01,25,12,51,94.60
2020,01,25,12,52,89.20
2020,01,25,12,53,85.20
2020,01,25,12,54,84.00
2020,01,25,12,55,88.10
2020,01,25,12,56,90.80
2020,01,25,12,57,91.20
2020,01,25,12,58,94.40
2020,01,25,12,59,101.60
2020,01,25,13,00,104.50
2020,01,25,13,01,102.90
2020,01,25,13,02,94.80
2020,01,25,13,03,91.20
2020,01,25,13,04,93.00
2020,01,25,13,05,94.60
2020,01,25,13,06,99.80
2020,01,25,13,07,104.10
2020,01,25,13,08,106.60
2020,01,25,13,09,104.30
2020,01,25,13,10,105.60
2020,01,25,13,11,109.50
2020,01,25,13,12,113.00
2020,01,25,13,13,108.70
2020,01,25,13,14,100.70
2020,01,25,13,15,92.20
2020,01,25,13,16,85.90
2020,01,25,13,17,78.60
2020,01,25,13,18,74.80
2020,01,25,13,19,75.60
2020,01,25,13,20,82.80
2020,01,25,13,21,95.20
2020,01,25,13,22,111.90
2020,01,25,13,23,128.00
2020,01,25,13,24,141.90
2020,01,25,13,25,149.70
2020,01,25,13,26,149.10
2020,01,25,13,27,146.00
2020,01,25,13,28,146.70
2020,01,25,13,29,150.50
2020,01,25,13,30,153.00
2020,01,25,13,31,149.80
2020,01,25,13,32,145.90
2020,01,25,13,33,145.00
2020,01,25,13,34,151.70
2020,01,25,13,35,164.60
2020,01,25,13,36,176.60
2020,01,25,13,37,176.60
2020,01,25,13,38,174.90
2020,01,25,13,39,165.50
2020,01,25,13,40,168.80
2020,01,25,13,41,174.00
2020,01,25,13,42,182.50
2020,01,25,13,43,193.20
2020,01,25,13,44,207.40
2020,01,25,13,45,192.20
2020,01,25,13,46,196.80
2020,01,25,13,47,214.40
2020,01,25,13,48,222.40
2020,01,25,13,49,211.70
2020,01,25,13,50,203.40
2020,01,25,13,51,198.50
2020,01,25,13,52,191.90
2020,01,25,13,53,183.90
2020,01,25,13,54,177.50
2020,01,25,13,55,176.00
2020,01,25,13,56,178.80
2020,01,25,13,57,183.60
2020,01,25,13,58,185.00
2020,01,25,13,59,183.80
2020,01,25,14,00,181.50
2020,01,25,14,01,178.00
2020,01,25,14,02,170.60
2020,01,25,14,03,164.10
2020,01,25,14,04,161.10
2020,01,25,14,05,161.30
2020,01,25,14,06,162.00
2020,01,25,14,07,159.90
2020,01,25,14,08,150.20
2020,01,25,14,09,134.60
2020,01,25,14,10,121.50
2020,01,25,14,11,111.20
2020,01,25,14,12,105.00
2020,01,25,14,13,101.70
2020,01,25,14,14,97.40
2020,01,25,14,15,93.40
2020,01,25,14,16,89.40
2020,01,25,14,17,86.70
2020,01,25,14,18,89.40
2020,01,25,14,19,98.50
2020,01,25,14,20,109.60
2020,01,25,14,21,118.00
2020,01,25,14,22,123.30
2020,01,25,14,23,130.80
2020,01,25,14,24,134.50
2020,01,25,14,25,139.00
2020,01,25,14,26,138.50
2020,01,25,14,27,135.80
2020,01,25,14,28,132.80
2020,01,25,14,29,129.30
2020,01,25,14,30,128.00
2020,01,25,14,31,126.40
2020,01,25,14,32,122.10
2020,01,25,14,33,117.20
2020,01,25,14,34,111.00
2020,01,25,14,35,107.50
2020,01,25,14,36,108.80
2020,01,25,14,37,114.90
2020,01,25,14,38,122.10
2020,01,25,14,39,130.10
2020,01,25,14,40,137.20
2020,01,25,14,41,140.50
2020,01,25,14,42,141.90
2020,01,25,14,43,141.80
2020,01,25,14,44,138.80
2020,01,25,14,45,133.40
2020,01,25,14,46,130.70
2020,01,25,14,47,131.50
2020,01,25,14,48,133.90
2020,01,25,14,49,136.60
2020,01,25,14,50,133.00
2020,01,25,14,51,130.00
2020,01,25,14,52,140.40
2020,01,25,14,53,158.60
2020,01,25,14,54,187.10
2020,01,25,14,55,190.30
2020,01,25,14,56,202.20
2020,01,25,14,57,210.20
2020,01,25,14,58,206.10
2020,01,25,14,59,207.60
2020,01,25,15,00,214.70
2020,01,25,15,01,192.80
2020,01,25,15,02,153.00
2020,01,25,15,03,182.80
2020,01,25,15,04,207.00
2020,01,25,15,05,216.30
2020,01,25,15,06,242.90
2020,01,25,15,07,276.00
2020,01,25,15,08,292.40
2020,01,25,15,09,296.70
2020,01,25,15,10,289.40
2020,01,25,15,11,277.60
2020,01,25,15,12,262.00
2020,01,25,15,13,235.50
2020,01,25,15,14,178.80
2020,01,25,15,15,174.90
2020,01,25,15,16,198.40
2020,01,25,15,17,192.50
2020,01,25,15,18,163.20
2020,01,25,15,19,141.90
2020,01,25,15,20,120.40
2020,01,25,15,21,115.80
2020,01,25,15,22,100.70
2020,01,25,15,23,101.10
2020,01,25,15,24,135.60
2020,01,25,15,25,154.30
2020,01,25,15,26,154.00
2020,01,25,15,27,154.30
2020,01,25,15,28,145.80
2020,01,25,15,29,139.40
2020,01,25,15,30,138.10
2020,01,25,15,31,128.10
2020,01,25,15,32,138.50
2020,01,25,15,33,134.40
2020,01,25,15,34,112.80
2020,01,25,15,35,85.50
2020,01,25,15,36,80.00
2020,01,25,15,37,77.80
2020,01,25,15,38,75.30
2020,01,25,15,39,70.10
2020,01,25,15,40,64.20
2020,01,25,15,41,61.70
2020,01,25,15,42,59.00
2020,01,25,15,43,62.40
2020,01,25,15,44,65.10
2020,01,25,15,45,65.60
2020,01,25,15,46,60.80
2020,01,25,15,47,55.90
2020,01,25,15,48,53.70
2020,01,25,15,49,53.40
2020,01,25,15,50,53.40
2020,01,25,15,51,48.80
2020,01,25,15,52,44.50
2020,01,25,15,53,40.20
2020,01,25,15,54,39.10
2020,01,25,15,55,35.30
2020,01,25,15,56,33.00
2020,01,25,15,57,32.30
2020,01,25,15,58,30.30
2020,01,25,15,59,29.40
2020,01,25,16,00,26.00
2020,01,25,16,01,25.50
2020,01,25,16,02,25.00
2020,01,25,16,03,25.00
2020,01,25,16,04,25.00
2020,01,25,16,05,24.60
2020,01,25,16,06,23.60
2020,01,25,16,07,25.00
2020,01,25,16,08,25.00
2020,01,25,16,09,25.00
2020,01,25,16,10,26.00
2020,01,25,16,11,27.60
2020,01,25,16,12,25.60
2020,01,25,16,13,25.00
2020,01,25,16,14,25.00
2020,01,25,16,15,23.40
2020,01,25,16,16,21.30
2020,01,25,16,17,23.00
2020,01,25,16,18,22.30
2020,01,25,16,19,20.00
2020,01,25,16,20,19.00
2020,01,25,16,21,18.20
2020,01,25,16,22,18.00
2020,01,25,16,23,17.50
2020,01,25,16,24,15.20
2020,01,25,16,25,14.00
2020,01,25,16,26,14.00
2020,01,25,16,27,12.30
2020,01,25,16,28,12.00
2020,01,25,16,29,12.00
2020,01,25,16,30,12.00
2020,01,25,16,31,12.00
2020,01,25,16,32,12.00
2020,01,25,16,33,12.00
2020,01,25,16,34,11.00
2020,01,25,16,35,10.40
2020,01,25,16,36,9.00
2020,01,25,16,37,7.80
2020,01,25,16,38,7.00
2020,01,25,16,39,5.30
2020,01,25,16,40,5.00
2020,01,25,16,41,5.00
2020,01,25,16,42,5.00
2020,01,25,16,43,2.00
2020,01,25,16,44,0.00
2020,01,25,16,45,0.00
2020,01,25,16,46,0.00
2020,01,25,16,47,0.00
2020,01,25,16,48,0.00
2020,01,25,16,49,0.00
2020,01,25,16,50,0.00
2020,01,25,16,51,0.00
2020,01,25,16,52,0.00
2020,01,25,16,53,0.00
2020,01,25,16,54,0.00
2020,01,25,16,55,0.00
2020,01,25,16,56,0.00
2020,01,25,16,57,0.00
2020,01,25,16,58,0.00
2020,01,25,16,59,0.00
2020,01,25,17,00,0.00
2020,01,25,17,01,0.00
2020,01,25,17,02,0.00
2020,01,25,17,03,0.00
2020,01,25,17,04,0.00
2020,01,25,17,05,0.00
2020,01,25,17,06,0.00
2020,01,25,17,07,0.00
2020,01,25,17,08,0.00
2020,01,25,17,09,0.00
2020,01,25,17,10,0.00
2020,01,25,17,11,0.00
2020,01,25,17,12,0.00
2020,01,25,17,13,0.00
2020,01,25,17,14,0.00
2020,01,25,17,15,0.00
2020,01,25,17,16,0.00
2020,01,25,17,17,0.00
2020,01,25,17,18,0.00
2020,01,25,17,19,0.00
2020,01,25,17,20,0.00
2020,01,25,17,21,0.00
2020,01,25,17,22,0.00
2020,01,25,17,23,0.00
2020,01,25,17,24,0.00
2020,01,25,17,25,0.00
2020,01,25,17,26,0.00
2020,01,25,17,27,0.00
2020,01,25,17,28,0.00
2020,01,25,17,29,0.00
2020,01,25,17,30,0.00
2020,01,25,17,31,0.00
2020,01,25,17,32,0.00
2020,01,25,17,33,0.00
2020,01,25,17,34,0.00
2020,01,25,17,35,0.00
2020,01,25,17,36,0.00
2020,01,25,17,37,0.00
2020,01,25,17,38,0.00
2020,01,25,17,39,0.00
2020,01,25,17,40,0.00
2020,01,25,17,41,0.00
2020,01,25,17,42,0.00
2020,01,25,17,43,0.00
2020,01,25,17,44,0.00
2020,01,25,17,45,0.00
2020,01,25,17,46,0.00
2020,01,25,17,47,0.00
2020,01,25,17,48,0.00
2020,01,25,17,49,0.00
2020,01,25,17,50,0.00
2020,01,25,17,51,0.00
2020,01,25,17,52,0.00
2020,01,25,17,53,0.00
2020,01,25,17,54,0.00
2020,01,25,17,55,0.00
2020,01,25,17,56,0.00
2020,01,25,17,57,0.00
2020,01,25,17,58,0.00
2020,01,25,17,59,0.00
2020,01,25,18,00,0.00
2020,01,25,18,01,0.00
2020,01,25,18,02,0.00
2020,01,25,18,03,0.00
2020,01,25,18,04,0.00
2020,01,25,18,05,0.00
2020,01,25,18,06,0.00
2020,01,25,18,07,0.00
2020,01,25,18,08,0.00
2020,01,25,18,09,0.00
2020,01,25,18,10,0.00
2020,01,25,18,11,0.00
2020,01,25,18,12,0.00
2020,01,25,18,13,0.00
2020,01,25,18,14,0.00
2020,01,25,18,15,0.00
2020,01,25,18,16,0.00
2020,01,25,18,17,0.00
2020,01,25,18,18,0.00
2020,01,25,18,19,0.00
2020,01,25,18,20,0.00
2020,01,25,18,21,0.00
2020,01,25,18,22,0.00
2020,01,25,18,23,0.00
2020,01,25,18,24,0.00
2020,01,25,18,25,0.00
2020,01,25,18,26,0.00
2020,01,25,18,27,0.00
2020,01,25,18,28,0.00
2020,01,25,18,29,0.00
2020,01,25,18,30,0.00
2020,01,25,18,31,0.00
2020,01,25,18,32,0.00
2020,01,25,18,33,0.00
2020,01,25,18,34,0.00
2020,01,25,18,35,0.00
2020,01,25,18,36,0.00
2020,01,25,18,37,0.00
2020,01,25,18,38,0.00
2020,01,25,18,39,0.00
2020,01,25,18,40,0.00
2020,01,25,18,41,0.00
2020,01,25,18,42,0.00
2020,01,25,18,43,0.00
2020,01,25,18,44,0.00
2020,01,25,18,45,0.00
2020,01,25,18,46,0.00
2020,01,25,18,47,0.00
2020,01,25,18,48,0.00
2020,01,25,18,49,0.00
2020,01,25,18,50,0.00
2020,01,25,18,51,0.00
2020,01,25,18,52,0.00
2020,01,25,18,53,0.00
2020,01,25,18,54,0.00
2020,01,25,18,55,0.00
2020,01,25,18,56,0.00
2020,01,25,18,57,0.00
2020,01,25,18,58,0.00
2020,01,25,18,59,0.00
2020,01,25,19,00,0.00
2020,01,25,19,01,0.00
2020,01,25,19,02,0.00
2020,01,25,19,03,0.00
2020,01,25,19,04,0.00
2020,01,25,19,05,0.00
2020,01,25,19,06,0.00
2020,01,25,19,07,0.00
2020,01,25,19,08,0.00
2020,01,25,19,09,0.00
2020,01,25,19,10,0.00
2020,01,25,19,11,0.00
2020,01,25,19,12,0.00
2020,01,25,19,13,0.00
2020,01,25,19,14,0.00
2020,01,25,19,15,0.00
2020,01,25,19,16,0.00
2020,01,25,19,17,0.00
2020,01,25,19,18,0.00
2020,01,25,19,19,0.00
2020,01,25,19,20,0.00
2020,01,25,19,21,0.00
2020,01,25,19,22,0.00
2020,01,25,19,23,0.00
2020,01,25,19,24,0.00
2020,01,25,19,25,0.00
2020,01,25,19,26,0.00
2020,01,25,19,27,0.00
2020,01,25,19,28,0.00
2020,01,25,19,29,0.00
2020,01,25,19,30,0.00
2020,01,25,19,31,0.00
2020,01,25,19,32,0.00
2020,01,25,19,33,0.00
2020,01,25,19,34,0.00
2020,01,25,19,35,0.00
2020,01,25,19,36,0.00
2020,01,25,19,37,0.00
2020,01,25,19,38,0.00
2020,01,25,19,39,0.00
2020,01,25,19,40,0.00
2020,01,25,19,41,0.00
2020,01,25,19,42,0.00
2020,01,25,19,43,0.00
2020,01,25,19,44,0.00
2020,01,25,19,45,0.00
2020,01,25,19,46,0.00
2020,01,25,19,47,0.00
2020,01,25,19,48,0.00
2020,01,25,19,49,0.00
2020,01,25,19,50,0.00
2020,01,25,19,51,0.00
2020,01,25,19,52,0.00
2020,01,25,19,53,0.00
2020,01,25,19,54,0.00
2020,01,25,19,55,0.00
2020,01,25,19,56,0.00
2020,01,25,19,57,0.00
2020,01,25,19,58,0.00
2020,01,25,19,59,0.00
2020,01,25,20,00,0.00
2020,01,25,20,01,0.00
2020,01,25,20,02,0.00
2020,01,25,20,03,0.00
2020,01,25,20,04,0.00
2020,01,25,20,05,0.00
2020,01,25,20,06,0.00
2020,01,25,20,07,0.00
2020,01,25,20,08,0.00
2020,01,25,20,09,0.00
2020,01,25,20,10,0.00
2020,01,25,20,11,0.00
2020,01,25,20,12,0.00
2020,01,25,20,13,0.00
2020,01,25,20,14,0.00
2020,01,25,20,15,0.00
2020,01,25,20,16,0.00
2020,01,25,20,17,0.00
2020,01,25,20,18,0.00
2020,01,25,20,19,0.00
2020,01,25,20,20,0.00
2020,01,25,20,21,0.00
2020,01,25,20,22,0.00
2020,01,25,20,23,0.00
2020,01,25,20,24,0.00
2020,01,25,20,25,0.00
2020,01,25,20,26,0.00
2020,01,25,20,27,0.00
2020,01,25,20,28,0.00
2020,01,25,20,29,0.00
2020,01,25,20,30,0.00
2020,01,25,20,31,0.00
2020,01,25,20,32,0.00
2020,01,25,20,33,0.00
2020,01,25,20,34,0.00
2020,01,25,20,35,0.00
2020,01,25,20,36,0.00
2020,01,25,20,37,0.00
2020,01,25,20,38,0.00
2020,01,25,20,39,0.00
2020,01,25,20,40,0.00
2020,01,25,20,41,0.00
2020,01,25,20,42,0.00
2020,01,25,20,43,0.00